Cartersville, GA

12:53 PM EST on February 28, 2017 (GMT -0500)
Cartersville

Weather History for KVPC - April, 2012

Change the Weather History Date:

Sunday, April 22, 2012

  Actual Average Record
Temperature  
Mean Temperature 56 °F 61 °F  
Max Temperature 64 °F 74 °F 81 °F (2001)
Min Temperature 48 °F 48 °F 36 °F (2009)
Degree Days  
Heating Degree Days 8 5  
Month to date heating degree days 164  
Since 1 July heating degree days 3192  
Cooling Degree Days 0 1  
Month to date cooling degree days 11  
Year to date cooling degree days 15  
Growing Degree Days 6 (Base 50)    
Moisture  
Dew Point 42 °F    
Average Humidity 63    
Maximum Humidity 83    
Minimum Humidity 41    
Precipitation  
Precipitation 0.00 in 0.16 in 1.86 in (1966)
Month to date precipitation 2.74  
Year to date precipitation 16.96  
Sea Level Pressure  
Sea Level Pressure 29.74 in    
Wind  
Wind Speed 5 mph (NNW)    
Max Wind Speed 10 mph    
Max Gust Speed 22 mph    
Visibility 10 miles    
Events      
T = Trace of Precipitation, MM = Missing Value Source: NWS Daily Summary

Daily Weather History Graph

Daily Weather History Graph

Search for Another Location

Airport or City:

Trip Planner

Search our weather history database for the weather conditions in past years. The results will help you decide how hot, cold, wet, or windy it might be!

Date:

Astronomy

Apr. 22, 2012 Rise Set
Actual Time 6:59 AM EDT 8:16 PM EDT
Civil Twilight 6:33 AM EDT 8:42 PM EDT
Nautical Twilight 6:01 AM EDT 9:14 PM EDT
Astronomical Twilight 5:29 AM EDT 9:46 PM EDT
Moon 7:34 AM EDT (4/22) 9:47 PM EDT (4/22)
Length of Visible Light 14h 09m
Length of Day
13h 17m
New Moon, 2% of the Moon is Illuminated
Apr 22
New Moon
Apr 29
First Quarter
May 5
Full
May 12
Last Quarter
May 20
New

Hourly Weather History & Observations

Time (EDT) Temp. Dew Point Humidity Pressure Visibility Wind Dir Wind Speed Gust Speed Precip Events Conditions
12:19 AM 55.4 °F 50.0 °F 82% 29.79 in 10.0 mi Calm Calm - N/A   Mostly Cloudy
12:53 AM 55.0 °F 50.0 °F 83% 29.76 in 10.0 mi Calm Calm - N/A   Scattered Clouds
1:53 AM 54.0 °F 48.9 °F 83% 29.74 in 10.0 mi Variable 4.6 mph - N/A   Partly Cloudy
2:14 AM 53.6 °F 48.2 °F 82% 29.76 in 10.0 mi Calm Calm - N/A   Mostly Cloudy
2:53 AM 54.0 °F 48.0 °F 80% 29.72 in 10.0 mi Variable 4.6 mph - N/A   Overcast
3:53 AM 54.0 °F 48.0 °F 80% 29.72 in 10.0 mi NW 8.1 mph - N/A   Overcast
4:53 AM 54.0 °F 46.9 °F 77% 29.72 in 10.0 mi Variable 3.5 mph - N/A   Overcast
5:53 AM 53.1 °F 46.9 °F 80% 29.72 in 10.0 mi Variable 5.8 mph - N/A   Overcast
6:53 AM 53.1 °F 46.0 °F 77% 29.72 in 10.0 mi Variable 5.8 mph - N/A   Overcast
7:53 AM 52.0 °F 45.0 °F 77% 29.73 in 10.0 mi NNW 4.6 mph - N/A   Overcast
8:53 AM 52.0 °F 44.1 °F 74% 29.74 in 10.0 mi Variable 5.8 mph 17.3 mph N/A   Overcast
9:53 AM 53.1 °F 43.0 °F 69% 29.74 in 10.0 mi NNW 10.4 mph 18.4 mph N/A   Overcast
10:49 AM 55.4 °F 42.8 °F 63% 29.76 in 10.0 mi NNW 8.1 mph 19.6 mph N/A   Scattered Clouds
10:53 AM 55.0 °F 43.0 °F 64% 29.74 in 10.0 mi NW 8.1 mph 19.6 mph N/A   Scattered Clouds
11:09 AM 55.4 °F 42.8 °F 63% 29.76 in 10.0 mi North 6.9 mph 17.3 mph N/A   Mostly Cloudy
11:39 AM 57.2 °F 42.8 °F 59% 29.76 in 10.0 mi NNW 10.4 mph 17.3 mph N/A   Scattered Clouds
11:53 AM 57.9 °F 43.0 °F 58% 29.73 in 10.0 mi North 8.1 mph 20.7 mph N/A   Partly Cloudy
12:53 PM 60.1 °F 41.0 °F 49% 29.70 in 10.0 mi North 10.4 mph 21.9 mph N/A   Scattered Clouds
1:53 PM 61.0 °F 39.9 °F 46% 29.70 in 10.0 mi NNW 10.4 mph 21.9 mph N/A   Partly Cloudy
2:53 PM 63.0 °F 39.9 °F 43% 29.69 in 10.0 mi NNW 9.2 mph 20.7 mph N/A   Partly Cloudy
3:53 PM 63.0 °F 39.0 °F 41% 29.68 in 10.0 mi NNW 10.4 mph 18.4 mph N/A   Scattered Clouds
4:53 PM 63.0 °F 39.0 °F 41% 29.68 in 10.0 mi NNW 10.4 mph 20.7 mph N/A   Mostly Cloudy
5:53 PM 60.1 °F 36.0 °F 41% 29.70 in 10.0 mi NNW 9.2 mph 17.3 mph N/A   Overcast
6:53 PM 59.0 °F 37.9 °F 46% 29.72 in 10.0 mi NNW 10.4 mph 17.3 mph N/A   Overcast
7:53 PM 57.0 °F 35.1 °F 44% 29.75 in 10.0 mi NNW 6.9 mph 18.4 mph N/A   Mostly Cloudy
8:53 PM 54.0 °F 34.0 °F 47% 29.77 in 10.0 mi NNW 8.1 mph - N/A   Partly Cloudy
9:53 PM 52.0 °F 34.0 °F 50% 29.78 in 10.0 mi Variable 4.6 mph - N/A   Clear
10:53 PM 50.0 °F 35.1 °F 57% 29.80 in 10.0 mi Variable 3.5 mph - N/A   Clear
11:53 PM 48.9 °F 36.0 °F 61% 29.80 in 10.0 mi Variable 3.5 mph - N/A   Clear